Location: Newark
(42.6333°N, 43.1333°E)
Time: 22:48:21
(UTC+00:00)

ISS - Visible Passes

Search period start: 15 July 2019 00:00
Search period end: 25 July 2019 00:00
Orbit: 409 x 418 km, 51.6° (Epoch: 16 July)

Date Brightness Start Highest point End Pass type
(mag) Time Alt. Az. Time Alt. Az. Time Alt. Az.
15 Jul -2.1 00:27:59 10° NW 00:31:06 36° NNE 00:34:11 10° E visible
15 Jul -1.1 18:53:04 11° ENE 18:53:04 11° ENE 18:53:10 10° ENE visible
15 Jul -1.8 20:25:40 24° NW 20:26:45 29° NNW 20:29:43 10° NE visible
15 Jul -0.8 22:01:54 10° NW 22:04:12 17° N 22:06:29 10° NE visible
15 Jul -1.5 23:38:47 10° NW 23:41:41 26° NNE 23:44:32 10° E visible
16 Jul -2.9 17:57:49 10° SSW 18:00:44 28° SE 18:03:40 10° ENE visible
16 Jul -2.5 19:34:09 10° W 19:37:20 41° NNW 19:40:31 10° NE visible
16 Jul -0.8 21:12:17 10° NW 21:14:39 18° N 21:17:02 10° NE visible
16 Jul -1.1 22:49:33 10° NW 22:52:12 21° NNE 22:54:50 10° ENE visible
17 Jul -3.7 00:25:58 10° NW 00:29:17 78° NNE 00:32:35 10° ESE visible
17 Jul -3.4 18:44:39 10° WSW 18:47:58 64° NNW 18:51:17 10° NE visible
17 Jul -1.0 20:22:34 10° WNW 20:25:08 20° NNW 20:27:41 10° NE visible
17 Jul -0.9 22:00:14 10° NW 22:02:41 19° N 22:05:06 10° NE visible
17 Jul -2.8 23:36:42 10° NW 23:39:56 48° NNE 23:43:10 10° ESE visible
18 Jul -3.9 17:55:19 10° SW 17:58:39 77° SE 18:01:59 10° ENE visible
18 Jul -1.3 19:32:49 10° WNW 19:35:37 24° NNW 19:38:25 10° NE visible
18 Jul -0.8 21:10:49 10° NW 21:13:08 17° N 21:15:26 10° NE visible
18 Jul -2.0 22:47:28 10° NW 22:50:32 33° NNE 22:53:34 10° E visible
19 Jul -3.4 00:24:08 10° WNW 00:27:15 39° SW 00:30:21 10° SSE visible
19 Jul -1.8 18:43:05 10° W 18:46:08 32° NNW 18:49:10 10° NE visible
19 Jul -0.8 20:21:14 10° NW 20:23:33 17° N 20:25:51 10° NE visible
19 Jul -1.5 21:58:13 10° NW 22:01:03 25° NNE 22:03:52 10° ENE visible
19 Jul -4.0 23:34:41 10° WNW 23:38:00 71° SW 23:41:16 10° SE visible
20 Jul -2.6 17:53:27 10° WSW 17:56:42 45° NNW 17:59:55 10° NE visible
20 Jul -0.9 19:31:33 10° NW 19:33:59 18° N 19:36:24 10° NE visible
20 Jul -1.1 21:08:55 10° NW 21:11:31 20° NNE 21:12:27 18° NE visible
21 Jul -1.1 18:41:46 10° WNW 18:44:24 21° NNW 18:47:02 10° NE visible
21 Jul -0.9 20:19:33 10° NW 20:21:57 18° N 20:23:43 13° NE visible
21 Jul -0.9 21:56:03 10° NW 21:56:29 13° NW 21:56:29 13° NW visible
22 Jul -1.4 17:51:59 10° WNW 17:54:51 26° NNW 17:57:44 10° NE visible
22 Jul -0.9 19:30:03 10° NW 19:32:20 17° N 19:34:39 10° NE visible
22 Jul -1.2 21:06:46 10° NW 21:08:13 20° NNW 21:08:13 20° NNW visible
23 Jul -0.9 18:40:23 10° NW 18:42:44 17° N 18:45:04 10° NE visible
23 Jul -1.5 20:17:28 10° NW 20:20:07 23° NNE 20:20:07 23° NNE visible
24 Jul -1.0 17:50:37 10° WNW 17:53:06 19° N 17:55:35 10° NE visible
24 Jul -1.3 19:28:07 10° NW 19:30:39 20° N 19:32:06 15° NE visible
24 Jul -0.7 21:04:32 10° NW 21:04:54 12° NW 21:04:54 12° NW visible
